Station Historical Data
Daily Summary for July 19, 2017 Units:  English    Metric   Both
« Previous Day
Next Day »
Daily Weekly Monthly Yearly Custom
  High: Low: Average:
Temperature: 86.0 °F 65.0 °F 73.6 °F
Dew Point: 51.2 °F 38.5 °F 43.8 °F
Humidity: 54 % 22 % 35 %
Wind Speed: 15.0 mph 0.0 mph 2 mph
Wind Gust: 16.0 mph - -
Wind:- - SE
Pressure: 29.98 in 29.92 in -
Precipitation: 0.00 in    
Historical Graphs
 
 
Tabular Data for July 19, 2017
Time Temperature Dew Point Pressure Wind Wind Speed Wind Gust Humidity Rainfall Rate (Hourly) solar
00:03 68.1 °F 39.4 °F 29.95 in East 6.0 mph 12.0 mph 35 % 0.00 in 0.00 W/m2
00:09 68.2 °F 39.5 °F 29.95 in ESE 2.0 mph 16.0 mph 35 % 0.00 in 0.00 W/m2
00:14 68.2 °F 38.8 °F 29.95 in ESE 9.0 mph 14.0 mph 34 % 0.00 in 0.00 W/m2
00:19 68.2 °F 39.5 °F 29.95 in East 5.0 mph 14.0 mph 35 % 0.00 in 0.00 W/m2
00:24 68.2 °F 39.5 °F 29.95 in Calm   15.0 mph 35 % 0.00 in 0.00 W/m2
00:29 68.2 °F 39.5 °F 29.95 in East 7.0 mph 13.0 mph 35 % 0.00 in 0.00 W/m2
00:34 68.3 °F 39.6 °F 29.95 in Calm   12.0 mph 35 % 0.00 in 0.00 W/m2
00:39 68.2 °F 39.5 °F 29.95 in East 4.0 mph 14.0 mph 35 % 0.00 in 0.00 W/m2
00:44 68.2 °F 39.5 °F 29.95 in ESE 13.0 mph 14.0 mph 35 % 0.00 in 0.00 W/m2
00:49 68.2 °F 39.5 °F 29.95 in East 12.0 mph 13.0 mph 35 % 0.00 in 0.00 W/m2
00:54 68.1 °F 39.4 °F 29.95 in East 9.0 mph 13.0 mph 35 % 0.00 in 0.00 W/m2
00:59 68.1 °F 40.2 °F 29.95 in East 12.0 mph 16.0 mph 36 % 0.00 in 0.00 W/m2
01:04 68.1 °F 40.2 °F 29.95 in East 15.0 mph 15.0 mph 36 % 0.00 in 0.00 W/m2
01:09 68.0 °F 40.1 °F 29.95 in East 4.0 mph 14.0 mph 36 % 0.00 in 0.00 W/m2
01:14 68.0 °F 40.1 °F 29.95 in Calm   14.0 mph 36 % 0.00 in 0.00 W/m2
01:19 67.9 °F 40.0 °F 29.95 in East 2.0 mph 13.0 mph 36 % 0.00 in 0.00 W/m2
01:24 67.9 °F 40.0 °F 29.95 in ESE 8.0 mph 16.0 mph 36 % 0.00 in 0.00 W/m2
01:29 67.9 °F 40.0 °F 29.95 in Calm   11.0 mph 36 % 0.00 in 0.00 W/m2
01:34 67.8 °F 39.9 °F 29.95 in Calm   15.0 mph 36 % 0.00 in 0.00 W/m2
01:39 67.7 °F 39.8 °F 29.94 in East 12.0 mph 13.0 mph 36 % 0.00 in 0.00 W/m2
01:44 67.7 °F 39.8 °F 29.95 in East 5.0 mph 12.0 mph 36 % 0.00 in 0.00 W/m2
01:49 67.7 °F 39.8 °F 29.94 in ESE 6.0 mph 13.0 mph 36 % 0.00 in 0.00 W/m2
01:54 67.6 °F 39.7 °F 29.94 in Calm   12.0 mph 36 % 0.00 in 0.00 W/m2
01:59 67.6 °F 39.7 °F 29.94 in ESE 8.0 mph 12.0 mph 36 % 0.00 in 0.00 W/m2
02:04 67.5 °F 39.6 °F 29.94 in ESE 7.0 mph 13.0 mph 36 % 0.00 in 0.00 W/m2
02:09 67.5 °F 40.3 °F 29.94 in East 9.0 mph 13.0 mph 37 % 0.00 in 0.00 W/m2
02:14 67.4 °F 39.5 °F 29.94 in Calm   13.0 mph 36 % 0.00 in 0.00 W/m2
02:19 67.4 °F 40.2 °F 29.94 in Calm   12.0 mph 37 % 0.00 in 0.00 W/m2
02:24 67.4 °F 40.2 °F 29.94 in ESE 6.0 mph 13.0 mph 37 % 0.00 in 0.00 W/m2
02:29 67.3 °F 40.2 °F 29.94 in ESE 7.0 mph 13.0 mph 37 % 0.00 in 0.00 W/m2
02:34 67.2 °F 40.1 °F 29.94 in East 8.0 mph 13.0 mph 37 % 0.00 in 0.00 W/m2
02:39 67.1 °F 40.0 °F 29.94 in East 6.0 mph 13.0 mph 37 % 0.00 in 0.00 W/m2
02:44 67.0 °F 39.9 °F 29.94 in ESE 7.0 mph 15.0 mph 37 % 0.00 in 0.00 W/m2
02:49 67.0 °F 40.6 °F 29.94 in East 8.0 mph 14.0 mph 38 % 0.00 in 0.00 W/m2
02:54 66.9 °F 40.5 °F 29.94 in East 2.0 mph 14.0 mph 38 % 0.00 in 0.00 W/m2
02:59 66.9 °F 40.5 °F 29.94 in Calm   11.0 mph 38 % 0.00 in 0.00 W/m2
03:04 66.8 °F 40.4 °F 29.94 in East 7.0 mph 13.0 mph 38 % 0.00 in 0.00 W/m2
03:09 66.8 °F 40.4 °F 29.94 in East 5.0 mph 13.0 mph 38 % 0.00 in 0.00 W/m2
03:14 66.8 °F 40.4 °F 29.94 in East 8.0 mph 9.0 mph 38 % 0.00 in 0.00 W/m2
03:19 66.7 °F 40.3 °F 29.93 in Calm   9.0 mph 38 % 0.00 in 0.00 W/m2
03:24 66.7 °F 41.0 °F 29.93 in ESE 12.0 mph 12.0 mph 39 % 0.00 in 0.00 W/m2
03:29 66.7 °F 40.3 °F 29.93 in Calm   14.0 mph 38 % 0.00 in 0.00 W/m2
03:34 66.6 °F 40.2 °F 29.93 in Calm   12.0 mph 38 % 0.00 in 0.00 W/m2
03:39 66.6 °F 40.2 °F 29.93 in East 6.0 mph 13.0 mph 38 % 0.00 in 0.00 W/m2
03:44 66.6 °F 40.9 °F 29.93 in East 5.0 mph 13.0 mph 39 % 0.00 in 0.00 W/m2
03:49 66.6 °F 40.2 °F 29.93 in Calm   9.0 mph 38 % 0.00 in 0.00 W/m2
03:54 66.6 °F 40.2 °F 29.93 in Calm   12.0 mph 38 % 0.00 in 0.00 W/m2
03:59 66.6 °F 40.2 °F 29.93 in East 5.0 mph 12.0 mph 38 % 0.00 in 0.00 W/m2
04:04 66.6 °F 40.2 °F 29.93 in East 8.0 mph 11.0 mph 38 % 0.00 in 0.00 W/m2
04:09 66.5 °F 40.8 °F 29.93 in East 6.0 mph 12.0 mph 39 % 0.00 in 0.00 W/m2
04:14 66.5 °F 40.1 °F 29.93 in East 6.0 mph 11.0 mph 38 % 0.00 in 0.00 W/m2
04:19 66.4 °F 40.0 °F 29.93 in Calm   9.0 mph 38 % 0.00 in 0.00 W/m2
04:24 66.4 °F 40.0 °F 29.93 in East 5.0 mph 11.0 mph 38 % 0.00 in 0.00 W/m2
04:29 66.3 °F 40.0 °F 29.93 in East 5.0 mph 11.0 mph 38 % 0.00 in 0.00 W/m2
04:34 66.3 °F 40.0 °F 29.93 in East 5.0 mph 9.0 mph 38 % 0.00 in 0.00 W/m2
04:39 66.3 °F 40.0 °F 29.94 in Calm   11.0 mph 38 % 0.00 in 0.00 W/m2
04:44 66.2 °F 39.9 °F 29.94 in ESE 5.0 mph 13.0 mph 38 % 0.00 in 0.00 W/m2
04:49 66.2 °F 39.9 °F 29.94 in Calm   14.0 mph 38 % 0.00 in 0.00 W/m2
04:54 66.2 °F 39.2 °F 29.94 in Calm   11.0 mph 37 % 0.00 in 0.00 W/m2
04:55 66.2 °F 39.2 °F 29.94 in East 1.0 mph 11.0 mph 37 % 0.00 in 0.00 W/m2
05:00 66.2 °F 39.2 °F 29.93 in Calm   12.0 mph 37 % 0.00 in 0.00 W/m2
05:05 66.2 °F 39.9 °F 29.94 in ESE 5.0 mph 12.0 mph 38 % 0.00 in 0.00 W/m2
05:10 66.2 °F 39.2 °F 29.93 in Calm   12.0 mph 37 % 0.00 in 0.00 W/m2
05:15 66.2 °F 39.9 °F 29.94 in ESE 11.0 mph 14.0 mph 38 % 0.00 in 0.00 W/m2
05:20 66.2 °F 39.9 °F 29.94 in Calm   11.0 mph 38 % 0.00 in 0.00 W/m2
05:25 66.1 °F 39.1 °F 29.94 in Calm   13.0 mph 37 % 0.00 in 0.00 W/m2
05:30 66.0 °F 39.0 °F 29.94 in Calm   12.0 mph 37 % 0.00 in 0.00 W/m2
05:35 65.9 °F 39.6 °F 29.94 in East 9.0 mph 11.0 mph 38 % 0.00 in 0.00 W/m2
05:40 65.9 °F 38.9 °F 29.94 in East 5.0 mph 9.0 mph 37 % 0.00 in 0.00 W/m2
05:45 65.8 °F 38.8 °F 29.94 in Calm   12.0 mph 37 % 0.00 in 0.00 W/m2
05:50 65.7 °F 38.7 °F 29.94 in Calm   8.0 mph 37 % 0.00 in 5.00 W/m2
05:55 65.7 °F 39.4 °F 29.94 in Calm   9.0 mph 38 % 0.00 in 5.00 W/m2
06:00 65.6 °F 39.3 °F 29.94 in ESE 2.0 mph 9.0 mph 38 % 0.00 in 7.00 W/m2
06:05 65.6 °F 38.7 °F 29.94 in East 6.0 mph 12.0 mph 37 % 0.00 in 11.00 W/m2
06:10 65.5 °F 38.6 °F 29.94 in Calm   11.0 mph 37 % 0.00 in 12.00 W/m2
06:15 65.5 °F 38.6 °F 29.94 in East 6.0 mph 12.0 mph 37 % 0.00 in 16.00 W/m2
06:20 65.4 °F 38.5 °F 29.94 in Calm   11.0 mph 37 % 0.00 in 19.00 W/m2
06:25 65.4 °F 39.2 °F 29.95 in Calm   9.0 mph 38 % 0.00 in 25.00 W/m2
06:31 65.4 °F 39.2 °F 29.95 in Calm   7.0 mph 38 % 0.00 in 28.00 W/m2
06:36 65.4 °F 39.2 °F 29.95 in ESE 2.0 mph 11.0 mph 38 % 0.00 in 33.00 W/m2
06:41 65.3 °F 39.7 °F 29.95 in ESE 7.0 mph 8.0 mph 39 % 0.00 in 44.00 W/m2
06:46 65.3 °F 39.7 °F 29.95 in Calm   11.0 mph 39 % 0.00 in 53.00 W/m2
06:51 65.2 °F 40.3 °F 29.95 in Calm   8.0 mph 40 % 0.00 in 63.00 W/m2
06:56 65.2 °F 40.3 °F 29.95 in Calm   9.0 mph 40 % 0.00 in 77.00 W/m2
07:01 65.1 °F 40.2 °F 29.95 in ESE 1.0 mph 8.0 mph 40 % 0.00 in 91.00 W/m2
07:06 65.1 °F 40.8 °F 29.95 in ESE 7.0 mph 7.0 mph 41 % 0.00 in 109.00 W/m2
07:11 65.0 °F 40.8 °F 29.95 in Calm   11.0 mph 41 % 0.00 in 125.00 W/m2
07:16 65.0 °F 40.8 °F 29.95 in Calm   11.0 mph 41 % 0.00 in 141.00 W/m2
07:21 65.0 °F 41.4 °F 29.95 in Calm     42 % 0.00 in 163.00 W/m2
07:26 65.0 °F 41.4 °F 29.95 in Calm   11.0 mph 42 % 0.00 in 181.00 W/m2
07:31 65.0 °F 42.0 °F 29.95 in Calm     43 % 0.00 in 202.00 W/m2
07:36 65.0 °F 42.0 °F 29.95 in ESE 1.0 mph 5.0 mph 43 % 0.00 in 220.00 W/m2
07:41 65.1 °F 42.7 °F 29.95 in ESE 2.0 mph 2.0 mph 44 % 0.00 in 243.00 W/m2
07:46 65.1 °F 43.3 °F 29.95 in Calm   6.0 mph 45 % 0.00 in 262.00 W/m2
07:51 65.2 °F 43.3 °F 29.96 in ESE 1.0 mph 7.0 mph 45 % 0.00 in 278.00 W/m2
07:56 65.2 °F 43.9 °F 29.96 in ESE 4.0 mph 5.0 mph 46 % 0.00 in 290.00 W/m2
08:01 65.3 °F 44.6 °F 29.96 in Calm   2.0 mph 47 % 0.00 in 304.00 W/m2
08:06 65.3 °F 44.6 °F 29.96 in ESE 5.0 mph 7.0 mph 47 % 0.00 in 320.00 W/m2
08:11 65.4 °F 45.2 °F 29.96 in Calm     48 % 0.00 in 336.00 W/m2
08:12 65.4 °F 45.2 °F 29.96 in Calm     48 % 0.00 in 336.00 W/m2
08:17 65.5 °F 45.8 °F 29.96 in ESE 1.0 mph 6.0 mph 49 % 0.00 in 350.00 W/m2
08:22 65.6 °F 46.5 °F 29.96 in Calm   4.0 mph 50 % 0.00 in 357.00 W/m2
08:25 65.7 °F 46.6 °F 29.97 in Calm   6.0 mph 50 % 0.00 in 366.00 W/m2
08:30 65.8 °F 47.2 °F 29.96 in Calm   5.0 mph 51 % 0.00 in 385.00 W/m2
08:35 66.1 °F 47.5 °F 29.96 in Calm   1.0 mph 51 % 0.00 in 413.00 W/m2
08:40 66.2 °F 48.1 °F 29.97 in Calm   6.0 mph 52 % 0.00 in 431.00 W/m2
08:45 66.4 °F 48.8 °F 29.97 in Calm   4.0 mph 53 % 0.00 in 443.00 W/m2
08:50 66.7 °F 49.0 °F 29.97 in Calm     53 % 0.00 in 462.00 W/m2
08:55 66.9 °F 49.7 °F 29.96 in Calm     54 % 0.00 in 478.00 W/m2
09:01 67.2 °F 49.5 °F 29.96 in Calm     53 % 0.00 in 494.00 W/m2
09:06 67.4 °F 50.2 °F 29.97 in Calm     54 % 0.00 in 508.00 W/m2
09:11 67.7 °F 50.0 °F 29.97 in Calm     53 % 0.00 in 522.00 W/m2
09:16 67.9 °F 50.2 °F 29.97 in Calm     53 % 0.00 in 540.00 W/m2
09:21 68.1 °F 48.2 °F 29.97 in Calm     49 % 0.00 in 550.00 W/m2
09:26 68.5 °F 46.9 °F 29.97 in Calm     46 % 0.00 in 568.00 W/m2
09:31 69.0 °F 45.0 °F 29.97 in Calm     42 % 0.00 in 582.00 W/m2
09:36 69.5 °F 45.4 °F 29.97 in Calm     42 % 0.00 in 592.00 W/m2
09:41 70.3 °F 46.8 °F 29.97 in Calm     43 % 0.00 in 610.00 W/m2
09:46 71.0 °F 47.4 °F 29.97 in Calm     43 % 0.00 in 619.00 W/m2
09:51 71.7 °F 48.7 °F 29.97 in Calm     44 % 0.00 in 631.00 W/m2
09:56 72.1 °F 48.4 °F 29.97 in Calm     43 % 0.00 in 640.00 W/m2
10:01 72.5 °F 50.0 °F 29.97 in ESE 4.0 mph 4.0 mph 45 % 0.00 in 652.00 W/m2
10:06 72.8 °F 48.4 °F 29.97 in East 2.0 mph 2.0 mph 42 % 0.00 in 663.00 W/m2
10:11 73.1 °F 48.0 °F 29.97 in Calm     41 % 0.00 in 680.00 W/m2
10:16 73.4 °F 47.6 °F 29.97 in Calm   1.0 mph 40 % 0.00 in 689.00 W/m2
10:21 73.6 °F 48.5 °F 29.97 in Calm     41 % 0.00 in 694.00 W/m2
10:26 73.9 °F 48.1 °F 29.97 in Calm     40 % 0.00 in 712.00 W/m2
10:31 74.1 °F 48.3 °F 29.98 in Calm     40 % 0.00 in 722.00 W/m2
10:36 74.3 °F 48.4 °F 29.98 in ENE 1.0 mph 3.0 mph 40 % 0.00 in 737.00 W/m2
10:41 74.6 °F 49.4 °F 29.97 in Calm     41 % 0.00 in 745.00 W/m2
10:46 74.9 °F 49.0 °F 29.97 in Calm     40 % 0.00 in 763.00 W/m2
10:51 75.2 °F 49.2 °F 29.97 in Calm     40 % 0.00 in 780.00 W/m2
10:56 75.4 °F 49.4 °F 29.98 in Calm     40 % 0.00 in 795.00 W/m2
11:01 75.6 °F 48.9 °F 29.98 in Calm     39 % 0.00 in 796.00 W/m2
11:06 75.9 °F 49.9 °F 29.98 in Calm     40 % 0.00 in 805.00 W/m2
11:11 76.2 °F 50.1 °F 29.97 in Calm   1.0 mph 40 % 0.00 in 835.00 W/m2
11:16 76.6 °F 51.2 °F 29.98 in Calm     41 % 0.00 in 846.00 W/m2
11:21 76.9 °F 49.4 °F 29.98 in Calm     38 % 0.00 in 844.00 W/m2
11:26 77.2 °F 44.2 °F 29.98 in Calm     31 % 0.00 in 858.00 W/m2
11:31 77.8 °F 43.0 °F 29.98 in Calm     29 % 0.00 in 851.00 W/m2
11:36 78.3 °F 46.9 °F 29.98 in Calm     33 % 0.00 in 854.00 W/m2
11:41 78.6 °F 45.5 °F 29.98 in Calm   5.0 mph 31 % 0.00 in 823.00 W/m2
11:46 79.0 °F 44.1 °F 29.98 in Calm   9.0 mph 29 % 0.00 in 833.00 W/m2
11:51 79.4 °F 43.5 °F 29.98 in South 4.0 mph 4.0 mph 28 % 0.00 in 846.00 W/m2
11:56 79.8 °F 44.8 °F 29.98 in Calm   4.0 mph 29 % 0.00 in 842.00 W/m2
12:01 80.1 °F 45.0 °F 29.98 in Calm   6.0 mph 29 % 0.00 in 886.00 W/m2
12:06 80.5 °F 44.4 °F 29.98 in SSE 8.0 mph 10.0 mph 28 % 0.00 in 896.00 W/m2
12:11 81.1 °F 44.9 °F 29.98 in SSW 5.0 mph 7.0 mph 28 % 0.00 in 893.00 W/m2
12:16 81.5 °F 45.3 °F 29.98 in SSW 2.0 mph 6.0 mph 28 % 0.00 in 904.00 W/m2
12:21 82.0 °F 44.8 °F 29.98 in SSE 4.0 mph 9.0 mph 27 % 0.00 in 900.00 W/m2
12:26 82.3 °F 46.0 °F 29.98 in SSE 7.0 mph 11.0 mph 28 % 0.00 in 895.00 W/m2
12:31 82.6 °F 45.3 °F 29.98 in SSE 5.0 mph 8.0 mph 27 % 0.00 in 868.00 W/m2
12:36 83.1 °F 45.7 °F 29.98 in Calm   7.0 mph 27 % 0.00 in 884.00 W/m2
12:41 83.5 °F 47.0 °F 29.98 in WSW 4.0 mph 7.0 mph 28 % 0.00 in 858.00 W/m2
12:46 83.9 °F 47.3 °F 29.98 in Calm   4.0 mph 28 % 0.00 in 863.00 W/m2
12:51 83.9 °F 46.4 °F 29.98 in Calm   2.0 mph 27 % 0.00 in 893.00 W/m2
12:56 84.1 °F 46.5 °F 29.98 in Calm   5.0 mph 27 % 0.00 in 905.00 W/m2
12:57 84.1 °F 46.5 °F 29.98 in Calm   5.0 mph 27 % 0.00 in 905.00 W/m2
13:02 84.4 °F 44.8 °F 29.98 in Calm   1.0 mph 25 % 0.00 in 898.00 W/m2
13:07 84.6 °F 46.0 °F 29.98 in Calm   9.0 mph 26 % 0.00 in 914.00 W/m2
13:09 84.7 °F 46.1 °F 29.98 in Calm   9.0 mph 26 % 0.00 in 904.00 W/m2
13:14 85.0 °F 45.3 °F 29.98 in Calm   7.0 mph 25 % 0.00 in 914.00 W/m2
13:19 84.8 °F 46.1 °F 29.98 in Calm   7.0 mph 26 % 0.00 in 882.00 W/m2
13:24 84.2 °F 45.6 °F 29.97 in Calm   6.0 mph 26 % 0.00 in 916.00 W/m2
13:29 84.1 °F 45.5 °F 29.98 in Calm   9.0 mph 26 % 0.00 in 925.00 W/m2
13:34 84.1 °F 47.5 °F 29.97 in Calm   8.0 mph 28 % 0.00 in 905.00 W/m2
13:39 83.9 °F 48.3 °F 29.98 in SW 5.0 mph 10.0 mph 29 % 0.00 in 912.00 W/m2
13:44 84.2 °F 46.6 °F 29.97 in SSW 3.0 mph 9.0 mph 27 % 0.00 in 898.00 W/m2
13:49 84.8 °F 47.1 °F 29.98 in Calm   9.0 mph 27 % 0.00 in 914.00 W/m2
13:54 84.5 °F 46.9 °F 29.97 in Calm   8.0 mph 27 % 0.00 in 921.00 W/m2
13:59 84.4 °F 44.8 °F 29.97 in Calm   11.0 mph 25 % 0.00 in 923.00 W/m2
14:05 84.4 °F 46.8 °F 29.97 in Calm   9.0 mph 27 % 0.00 in 916.00 W/m2
14:10 84.6 °F 44.9 °F 29.97 in South 5.0 mph 14.0 mph 25 % 0.00 in 909.00 W/m2
14:15 84.9 °F 45.2 °F 29.97 in WSW 2.0 mph 11.0 mph 25 % 0.00 in 905.00 W/m2
14:20 84.7 °F 46.1 °F 29.97 in Calm   3.0 mph 26 % 0.00 in 900.00 W/m2
14:25 84.6 °F 46.0 °F 29.97 in West 5.0 mph 9.0 mph 26 % 0.00 in 896.00 W/m2
14:30 85.0 °F 44.2 °F 29.97 in SSW 7.0 mph 13.0 mph 24 % 0.00 in 904.00 W/m2
14:35 85.4 °F 44.5 °F 29.97 in Calm   10.0 mph 24 % 0.00 in 891.00 W/m2
14:40 85.7 °F 44.8 °F 29.97 in South 6.0 mph 9.0 mph 24 % 0.00 in 877.00 W/m2
14:45 86.0 °F 43.9 °F 29.97 in Calm   6.0 mph 23 % 0.00 in 868.00 W/m2
14:50 85.9 °F 43.8 °F 29.96 in SSW 1.0 mph 6.0 mph 23 % 0.00 in 860.00 W/m2
14:55 85.6 °F 45.8 °F 29.96 in Calm   6.0 mph 25 % 0.00 in 856.00 W/m2
15:00 85.1 °F 44.3 °F 29.96 in SSW 4.0 mph 12.0 mph 24 % 0.00 in 847.00 W/m2
15:05 85.0 °F 43.1 °F 29.96 in Calm   11.0 mph 23 % 0.00 in 840.00 W/m2
15:10 85.2 °F 44.4 °F 29.96 in WSW 1.0 mph 7.0 mph 24 % 0.00 in 824.00 W/m2
15:15 85.1 °F 45.4 °F 29.96 in Calm   6.0 mph 25 % 0.00 in 814.00 W/m2
15:20 84.6 °F 46.0 °F 29.96 in Calm   1.0 mph 26 % 0.00 in 803.00 W/m2
15:25 84.5 °F 45.9 °F 29.96 in Calm   7.0 mph 26 % 0.00 in 793.00 W/m2
15:30 84.4 °F 46.8 °F 29.95 in Calm   3.0 mph 27 % 0.00 in 789.00 W/m2
15:35 84.3 °F 45.7 °F 29.95 in Calm   10.0 mph 26 % 0.00 in 782.00 W/m2
15:40 84.3 °F 45.7 °F 29.95 in Calm   7.0 mph 26 % 0.00 in 770.00 W/m2
15:45 84.2 °F 46.6 °F 29.95 in Calm   6.0 mph 27 % 0.00 in 759.00 W/m2
15:50 84.2 °F 43.5 °F 29.95 in Calm   7.0 mph 24 % 0.00 in 740.00 W/m2
15:55 84.1 °F 45.5 °F 29.95 in Calm   5.0 mph 26 % 0.00 in 729.00 W/m2
16:00 83.9 °F 44.3 °F 29.95 in West 5.0 mph 9.0 mph 25 % 0.00 in 722.00 W/m2
16:05 83.9 °F 45.4 °F 29.94 in Calm   6.0 mph 26 % 0.00 in 710.00 W/m2
16:10 84.0 °F 45.5 °F 29.94 in SW 1.0 mph 8.0 mph 26 % 0.00 in 700.00 W/m2
16:15 84.0 °F 44.4 °F 29.94 in Calm   5.0 mph 25 % 0.00 in 687.00 W/m2
16:20 84.1 °F 43.5 °F 29.94 in WSW 4.0 mph 10.0 mph 24 % 0.00 in 679.00 W/m2
16:25 84.1 °F 43.5 °F 29.94 in SW 1.0 mph 8.0 mph 24 % 0.00 in 663.00 W/m2
16:31 84.2 °F 44.6 °F 29.94 in SW 4.0 mph 7.0 mph 25 % 0.00 in 649.00 W/m2
16:36 84.3 °F 44.7 °F 29.94 in SSE 6.0 mph 11.0 mph 25 % 0.00 in 629.00 W/m2
16:41 84.3 °F 42.5 °F 29.94 in Calm   8.0 mph 23 % 0.00 in 626.00 W/m2
16:46 84.3 °F 42.5 °F 29.94 in South 8.0 mph 10.0 mph 23 % 0.00 in 606.00 W/m2
16:51 84.3 °F 42.5 °F 29.94 in Calm     23 % 0.00 in 596.00 W/m2
16:56 84.2 °F 44.6 °F 29.94 in WSW 3.0 mph 7.0 mph 25 % 0.00 in 578.00 W/m2
17:01 84.1 °F 43.5 °F 29.94 in SW 6.0 mph 6.0 mph 24 % 0.00 in 568.00 W/m2
17:06 84.0 °F 44.4 °F 29.94 in SW 7.0 mph 7.0 mph 25 % 0.00 in 550.00 W/m2
17:11 83.9 °F 43.3 °F 29.93 in SW 5.0 mph 6.0 mph 24 % 0.00 in 540.00 W/m2
17:16 83.9 °F 42.2 °F 29.93 in SW 3.0 mph 4.0 mph 23 % 0.00 in 522.00 W/m2
17:21 83.8 °F 44.3 °F 29.93 in SSW 7.0 mph 8.0 mph 25 % 0.00 in 504.00 W/m2
17:24 83.7 °F 44.2 °F 29.93 in Calm   8.0 mph 25 % 0.00 in 499.00 W/m2
17:29 83.6 °F 41.9 °F 29.93 in SW 1.0 mph 8.0 mph 23 % 0.00 in 483.00 W/m2
17:34 83.5 °F 43.0 °F 29.93 in Calm   1.0 mph 24 % 0.00 in 473.00 W/m2
17:39 83.4 °F 41.8 °F 29.93 in Calm   6.0 mph 23 % 0.00 in 452.00 W/m2
17:44 83.2 °F 44.8 °F 29.93 in SW 4.0 mph 9.0 mph 26 % 0.00 in 438.00 W/m2
17:49 83.1 °F 42.6 °F 29.93 in Calm   12.0 mph 24 % 0.00 in 424.00 W/m2
17:54 82.9 °F 44.5 °F 29.93 in Calm   1.0 mph 26 % 0.00 in 408.00 W/m2
17:59 82.6 °F 43.2 °F 29.93 in SW 3.0 mph 6.0 mph 25 % 0.00 in 390.00 W/m2
18:04 82.4 °F 39.8 °F 29.93 in Calm   2.0 mph 22 % 0.00 in 376.00 W/m2
18:09 82.3 °F 43.0 °F 29.93 in Calm   7.0 mph 25 % 0.00 in 359.00 W/m2
18:14 82.2 °F 43.9 °F 29.92 in Calm   3.0 mph 26 % 0.00 in 341.00 W/m2
18:19 82.1 °F 45.8 °F 29.92 in Calm   4.0 mph 28 % 0.00 in 325.00 W/m2
18:24 81.9 °F 45.6 °F 29.92 in Calm   8.0 mph 28 % 0.00 in 308.00 W/m2
18:29 81.7 °F 46.4 °F 29.92 in Calm   2.0 mph 29 % 0.00 in 292.00 W/m2
18:34 81.6 °F 46.3 °F 29.92 in Calm   3.0 mph 29 % 0.00 in 279.00 W/m2
18:39 81.5 °F 45.3 °F 29.92 in Calm   6.0 mph 28 % 0.00 in 262.00 W/m2
18:44 81.2 °F 46.8 °F 29.92 in Calm   1.0 mph 30 % 0.00 in 241.00 W/m2
18:49 80.9 °F 46.6 °F 29.92 in WSW 4.0 mph 6.0 mph 30 % 0.00 in 225.00 W/m2
18:54 80.6 °F 47.2 °F 29.92 in Calm   5.0 mph 31 % 0.00 in 211.00 W/m2
18:59 80.2 °F 47.7 °F 29.92 in Calm   3.0 mph 32 % 0.00 in 195.00 W/m2
19:04 79.7 °F 47.3 °F 29.92 in Calm   1.0 mph 32 % 0.00 in 178.00 W/m2
19:10 79.3 °F 47.7 °F 29.92 in Calm   1.0 mph 33 % 0.00 in 160.00 W/m2
19:15 78.9 °F 47.4 °F 29.92 in Calm   4.0 mph 33 % 0.00 in 139.00 W/m2
19:20 78.4 °F 48.5 °F 29.92 in Calm   1.0 mph 35 % 0.00 in 120.00 W/m2
19:25 78.0 °F 48.2 °F 29.92 in Calm   1.0 mph 35 % 0.00 in 102.00 W/m2
19:30 77.6 °F 48.6 °F 29.92 in Calm   1.0 mph 36 % 0.00 in 84.00 W/m2
19:35 77.2 °F 49.7 °F 29.92 in Calm   1.0 mph 38 % 0.00 in 69.00 W/m2
19:40 76.6 °F 49.1 °F 29.93 in Calm   1.0 mph 38 % 0.00 in 56.00 W/m2
19:45 76.3 °F 48.8 °F 29.93 in Calm   1.0 mph 38 % 0.00 in 44.00 W/m2
19:50 75.8 °F 48.4 °F 29.93 in Calm   1.0 mph 38 % 0.00 in 33.00 W/m2
19:55 75.3 °F 48.0 °F 29.93 in Calm   1.0 mph 38 % 0.00 in 25.00 W/m2
20:00 74.8 °F 47.5 °F 29.93 in Calm   1.0 mph 38 % 0.00 in 18.00 W/m2
20:05 74.4 °F 47.2 °F 29.93 in Calm     38 % 0.00 in 16.00 W/m2
20:10 74.0 °F 46.8 °F 29.93 in Calm   1.0 mph 38 % 0.00 in 12.00 W/m2
20:15 73.7 °F 46.5 °F 29.93 in Calm   1.0 mph 38 % 0.00 in 11.00 W/m2
20:20 73.4 °F 45.6 °F 29.93 in Calm   1.0 mph 37 % 0.00 in 9.00 W/m2
20:25 73.1 °F 45.3 °F 29.93 in Calm   1.0 mph 37 % 0.00 in 5.00 W/m2
20:30 72.7 °F 45.0 °F 29.93 in Calm   3.0 mph 37 % 0.00 in 5.00 W/m2
20:35 72.3 °F 44.6 °F 29.94 in Calm   3.0 mph 37 % 0.00 in 0.00 W/m2
20:40 72.0 °F 44.3 °F 29.93 in Calm   1.0 mph 37 % 0.00 in 0.00 W/m2
20:45 71.8 °F 44.2 °F 29.93 in Calm   1.0 mph 37 % 0.00 in 0.00 W/m2
20:50 71.6 °F 43.3 °F 29.94 in Calm     36 % 0.00 in 0.00 W/m2
20:55 71.4 °F 43.8 °F 29.94 in Calm     37 % 0.00 in 0.00 W/m2
21:00 71.3 °F 43.7 °F 29.94 in Calm     37 % 0.00 in 0.00 W/m2
21:05 71.2 °F 43.6 °F 29.94 in Calm     37 % 0.00 in 0.00 W/m2
21:10 71.1 °F 43.5 °F 29.94 in Calm   1.0 mph 37 % 0.00 in 0.00 W/m2
21:15 71.1 °F 43.5 °F 29.94 in Calm   1.0 mph 37 % 0.00 in 0.00 W/m2
21:20 71.0 °F 43.4 °F 29.95 in Calm     37 % 0.00 in 0.00 W/m2
21:25 70.8 °F 43.3 °F 29.95 in Calm   1.0 mph 37 % 0.00 in 0.00 W/m2
21:30 70.6 °F 43.1 °F 29.95 in Calm     37 % 0.00 in 0.00 W/m2
21:35 70.4 °F 43.6 °F 29.95 in Calm     38 % 0.00 in 0.00 W/m2
21:40 70.2 °F 43.4 °F 29.95 in Calm     38 % 0.00 in 0.00 W/m2
21:45 70.1 °F 43.3 °F 29.95 in Calm     38 % 0.00 in 0.00 W/m2
21:50 70.0 °F 43.9 °F 29.95 in Calm     39 % 0.00 in 0.00 W/m2
21:55 69.9 °F 43.8 °F 29.95 in Calm     39 % 0.00 in 0.00 W/m2
22:00 69.9 °F 43.8 °F 29.95 in Calm     39 % 0.00 in 0.00 W/m2
22:05 69.8 °F 43.1 °F 29.95 in Calm   2.0 mph 38 % 0.00 in 0.00 W/m2
22:10 69.8 °F 43.1 °F 29.95 in Calm   3.0 mph 38 % 0.00 in 0.00 W/m2
22:15 69.7 °F 43.0 °F 29.96 in SW 4.0 mph 4.0 mph 38 % 0.00 in 0.00 W/m2
22:20 69.7 °F 43.0 °F 29.96 in Calm   4.0 mph 38 % 0.00 in 0.00 W/m2
22:25 69.6 °F 43.6 °F 29.96 in Calm   8.0 mph 39 % 0.00 in 0.00 W/m2
22:30 69.5 °F 43.5 °F 29.95 in Calm   7.0 mph 39 % 0.00 in 0.00 W/m2
22:35 69.5 °F 43.5 °F 29.96 in ESE 5.0 mph 6.0 mph 39 % 0.00 in 0.00 W/m2
22:41 69.5 °F 43.5 °F 29.96 in ESE 2.0 mph 6.0 mph 39 % 0.00 in 0.00 W/m2
22:46 69.4 °F 44.1 °F 29.96 in Calm   7.0 mph 40 % 0.00 in 0.00 W/m2
22:51 69.4 °F 44.1 °F 29.96 in ESE 6.0 mph 8.0 mph 40 % 0.00 in 0.00 W/m2
22:56 69.4 °F 44.1 °F 29.96 in ESE 4.0 mph 8.0 mph 40 % 0.00 in 0.00 W/m2
23:01 69.4 °F 44.7 °F 29.96 in ESE 5.0 mph 8.0 mph 41 % 0.00 in 0.00 W/m2
23:06 69.4 °F 44.7 °F 29.96 in ESE 2.0 mph 9.0 mph 41 % 0.00 in 0.00 W/m2
23:11 69.4 °F 44.7 °F 29.95 in Calm   9.0 mph 41 % 0.00 in 0.00 W/m2
23:16 69.3 °F 44.6 °F 29.96 in Calm   11.0 mph 41 % 0.00 in 0.00 W/m2
23:21 69.2 °F 44.5 °F 29.95 in Calm   12.0 mph 41 % 0.00 in 0.00 W/m2
23:26 69.1 °F 44.4 °F 29.95 in ESE 1.0 mph 11.0 mph 41 % 0.00 in 0.00 W/m2
23:31 69.1 °F 44.4 °F 29.96 in Calm     41 % 0.00 in 0.00 W/m2
23:36 69.0 °F 44.3 °F 29.96 in ESE 8.0 mph 8.0 mph 41 % 0.00 in 0.00 W/m2
23:41 69.0 °F 44.3 °F 29.96 in East 5.0 mph 9.0 mph 41 % 0.00 in 0.00 W/m2
23:46 68.9 °F 44.2 °F 29.96 in East 5.0 mph 5.0 mph 41 % 0.00 in 0.00 W/m2
23:51 68.9 °F 44.9 °F 29.96 in East 6.0 mph 9.0 mph 42 % 0.00 in 0.00 W/m2
23:56 68.8 °F 44.8 °F 29.96 in East 8.0 mph 9.0 mph 42 % 0.00 in 0.00 W/m2
Juneau County Weather
Compliments of Weather Underground - 4.75 mb
 WU-history PHP script courtesy of   Juneau County Weather.
powered by Cumulus v1.9.3 (1059)
Ambient Weather VWS v14.00
Top Contact Website Map Copyright © 2007 - 2018 Foresthillweather.com Never base important decisions on this or any weather information obtained from the Internet